Manitowoc, WI

6:44 PM CDT on April 21, 2018 (GMT -0500)
Manitowoc County

Weather History for KMTW - January, 2014

Change the Weather History Date:

Tuesday, January 7, 2014

  Actual Average Record
Temperature  
Mean Temperature -8 °F -  
Max Temperature 1 °F 22 °F 43 °F (1961)
Min Temperature -16 °F 8 °F -19 °F (1968)
Degree Days  
Heating Degree Days 72    
Moisture  
Dew Point -17 °F    
Average Humidity 68    
Maximum Humidity 77    
Minimum Humidity 62    
Precipitation  
Precipitation 0.00 in - - ()
Sea Level Pressure  
Sea Level Pressure 30.20 in    
Wind  
Wind Speed 14 mph (West)    
Max Wind Speed 17 mph    
Max Gust Speed 28 mph    
Visibility 8 miles    
Events Snow    
Averages and records for this station are not official NWS values.
T = Trace of Precipitation, MM = Missing Value Source: NWS Daily Summary

Daily Weather History Graph

Daily Weather History Graph

Search for Another Location

Airport or City:

Astronomy

Jan. 07, 2014 Rise Set
Actual Time 7:25 AM CST 4:28 PM CST
Civil Twilight 6:52 AM CST 5:01 PM CST
Nautical Twilight 6:16 AM CST 5:37 PM CST
Astronomical Twilight 5:41 AM CST 6:12 PM CST
Moon 10:57 AM CST (1/7) No Moon Set
Length of Visible Light 10h 08m
Length of Day
9h 03m
Waxing Crescent, 46% of the Moon is Illuminated
Jan 7
Waxing Crescent
Jan 7
First Quarter
Jan 15
Full
Jan 23
Last Quarter
Jan 30
New

Hourly Weather History & Observations

Time (CST) Temp. Windchill Dew Point Humidity Pressure Visibility Wind Dir Wind Speed Gust Speed Precip Events Conditions
12:56 AM -16.1 °F -41.4 °F -23.1 °F 71% 30.15 in 10.0 mi West 17.3 mph 26.5 mph N/A   Clear
1:56 AM -16.1 °F -38.2 °F -24.0 °F 67% 30.15 in 10.0 mi West 12.7 mph 24.2 mph N/A   Clear
2:56 AM -16.1 °F -39.1 °F -24.0 °F 67% 30.16 in 10.0 mi West 13.8 mph 25.3 mph N/A   Clear
3:56 AM -16.1 °F -40.7 °F -23.1 °F 71% 30.17 in 10.0 mi West 16.1 mph 24.2 mph N/A   Clear
4:56 AM -16.1 °F -38.2 °F -23.1 °F 71% 30.16 in 10.0 mi West 12.7 mph 18.4 mph N/A   Clear
5:56 AM -16.1 °F -40.7 °F -23.1 °F 71% 30.17 in 10.0 mi West 16.1 mph - N/A   Clear
6:56 AM -16.1 °F -39.9 °F -23.1 °F 71% 30.17 in 10.0 mi West 15.0 mph 21.9 mph N/A   Clear
7:51 AM -14.8 °F -37.5 °F -22.0 °F 70% 30.08 in 1.2 mi West 13.8 mph 24.2 mph 0.00 in Snow Light Snow
7:53 AM -14.8 °F -37.5 °F -22.0 °F 70% 30.09 in 0.5 mi West 13.8 mph 24.2 mph 0.00 in Snow Snow
7:56 AM -15.0 °F -37.7 °F -22.0 °F 71% 30.18 in 0.5 mi West 13.8 mph 21.9 mph 0.00 in Snow Snow
8:08 AM -14.8 °F -39.8 °F -20.2 °F 77% 30.09 in 0.2 mi West 17.3 mph 25.3 mph 0.00 in Snow Heavy Snow
8:24 AM -13.0 °F -36.8 °F -20.2 °F 70% 30.10 in 0.5 mi West 16.1 mph 24.2 mph 0.00 in Snow Snow
8:27 AM -13.0 °F -36.0 °F -20.2 °F 70% 30.10 in 8.0 mi West 15.0 mph - 0.00 in Snow Light Snow
8:56 AM -13.0 °F -37.5 °F -20.9 °F 68% 30.21 in 10.0 mi West 17.3 mph 26.5 mph 0.00 in   Clear
9:56 AM -11.0 °F -33.5 °F -18.9 °F 68% 30.23 in 10.0 mi West 15.0 mph 25.3 mph N/A   Clear
10:56 AM -9.0 °F -32.4 °F -18.0 °F 65% 30.22 in 10.0 mi West 17.3 mph 27.6 mph N/A   Clear
11:56 AM -6.0 °F -28.4 °F -15.0 °F 65% 30.19 in 10.0 mi West 17.3 mph 26.5 mph N/A   Clear
12:56 PM -4.0 °F -25.8 °F -13.0 °F 65% 30.19 in 10.0 mi West 17.3 mph 26.5 mph N/A   Clear
1:56 PM -2.0 °F -22.6 °F -11.9 °F 63% 30.20 in 10.0 mi West 16.1 mph 26.5 mph N/A   Clear
2:56 PM -0.9 °F -20.6 °F -11.0 °F 62% 30.20 in 10.0 mi West 15.0 mph 20.7 mph N/A   Clear
3:56 PM -0.9 °F -16.4 °F -11.0 °F 62% 30.22 in 10.0 mi West 9.2 mph - N/A   Clear
4:56 PM -2.9 °F -18.8 °F -11.0 °F 68% 30.24 in 10.0 mi West 9.2 mph - N/A   Clear
5:56 PM -2.9 °F -17.7 °F -11.0 °F 68% 30.26 in 10.0 mi West 8.1 mph - N/A   Clear
6:56 PM -5.1 °F -17.6 °F -11.9 °F 72% 30.29 in 10.0 mi WSW 5.8 mph - N/A   Clear
7:56 PM -2.9 °F -13.3 °F -9.9 °F 72% 30.30 in 10.0 mi West 4.6 mph - N/A   Clear
8:56 PM -2.0 °F -12.2 °F -9.9 °F 69% 30.30 in 10.0 mi WSW 4.6 mph - N/A   Clear
9:56 PM 1.0 °F -15.8 °F -9.0 °F 63% 30.32 in 10.0 mi West 11.5 mph - N/A   Clear
10:56 PM -0.0 °F -13.0 °F -9.0 °F 66% 30.33 in 10.0 mi West 6.9 mph - N/A   Clear
11:56 PM -2.0 °F -13.9 °F -9.9 °F 69% 30.33 in 10.0 mi West 5.8 mph - N/A   Clear